DateTimeUTC,F1_A11,F1_S11,BsB_S11,BsG_S11,BsR_S11,BbsB_S11,BbsG_S11,BbsR_S11,BaB_A11,BaG_A11,BaR_A11,Tu_S11,T_S11,Uu_S11,U_S11,P_S11,T1_A11
2021-08-23T22:00:00Z,00000200,20000000,,,,,,,0000.03,-000.01,-000.14,18.9,25.9,07.6,05.0,0678.4,31.0
2021-08-23T22:01:00Z,00000200,20000000,,,,,,,-000.11,-000.07,-000.15,18.9,25.9,07.7,05.0,0678.4,31.0
2021-08-23T22:02:00Z,00000200,20000000,,,,,,,-000.10,-000.28,0000.00,18.9,25.9,07.7,05.0,0678.4,31.0
2021-08-23T22:03:00Z,00000200,60000000,,,,,,,0000.30,0000.45,0000.13,18.9,25.9,07.7,05.0,0678.4,31.0
2021-08-23T22:04:00Z,00000200,40000000,0000.74,0001.12,0000.50,-000.07,0000.29,0000.18,-000.02,0000.07,-000.03,19.0,25.7,07.4,04.9,0679.3,31.0
2021-08-23T22:05:00Z,00000200,00000000,0001.07,0000.94,0000.56,0000.08,-000.02,0000.20,0000.20,0000.06,0000.03,19.1,25.7,07.5,05.0,0679.4,31.0
2021-08-23T22:06:00Z,00000200,00000000,0001.71,0000.97,0000.77,0000.12,0000.30,0000.12,0000.29,0000.22,0000.47,19.1,25.7,07.4,04.9,0679.4,31.0
2021-08-23T22:07:00Z,00000200,00000000,0001.51,0001.11,0000.40,0000.40,0000.42,0000.03,0000.19,-000.07,0000.16,19.1,25.7,07.4,04.9,0679.4,31.0
2021-08-23T22:08:00Z,00000200,00000000,0000.63,0000.95,0000.50,0000.56,-000.16,0000.08,0000.35,0000.60,0000.02,19.1,25.6,07.5,05.0,0679.3,31.0
2021-08-23T22:09:00Z,00000200,00000000,0000.91,0000.94,0000.82,-000.67,0000.32,-000.08,-000.04,0000.21,0000.25,19.1,25.6,07.5,05.0,0679.3,31.0
2021-08-23T22:10:00Z,00000200,00000000,0001.31,0001.04,0000.49,-000.35,0000.21,0000.25,0000.64,0000.04,0000.12,19.1,25.6,07.5,05.0,0679.3,31.0
2021-08-23T22:11:00Z,00000200,00000000,0000.55,0001.00,0000.29,-000.46,0000.51,0000.09,-000.33,0000.09,0000.10,19.1,25.6,07.5,05.0,0679.4,31.0
2021-08-23T22:12:00Z,00000200,00000000,0001.28,0000.69,0000.66,-000.06,0000.21,0000.40,0000.27,-000.02,0000.01,19.1,25.6,07.3,04.9,0679.3,31.0
2021-08-23T22:13:00Z,00000200,00000000,0001.87,0000.93,0000.47,-000.09,0000.41,0000.43,0000.06,0000.15,0000.15,19.1,25.6,07.2,04.8,0679.3,31.0
2021-08-23T22:14:00Z,00000200,00000000,0001.29,0001.00,0000.49,-000.43,0000.52,-000.12,-000.16,0000.18,0000.32,19.1,25.6,07.1,04.8,0679.4,31.0
2021-08-23T22:15:00Z,00000200,00000000,0001.60,0001.07,0000.30,-000.26,0000.31,-000.09,0000.46,-000.06,-000.20,19.1,25.6,07.2,04.8,0679.3,31.0
2021-08-23T22:16:00Z,00000200,00000000,0000.56,0000.70,0000.34,-000.13,0000.36,-000.04,0000.07,0000.46,0000.15,19.1,25.6,07.1,04.8,0679.3,31.0
2021-08-23T22:17:00Z,00000200,00000000,0001.39,0000.75,0000.23,-000.10,0000.22,0000.26,0000.04,-000.34,-000.27,19.1,25.6,07.0,04.7,0679.4,31.0
2021-08-23T22:18:00Z,00000200,00000000,0000.88,0000.87,0000.01,0000.16,0000.46,0000.04,0000.22,0000.07,0000.27,19.1,25.6,07.0,04.7,0679.4,31.0
2021-08-23T22:19:00Z,00000200,00000000,0000.87,0000.75,0000.57,-000.37,0000.31,0000.14,0000.24,0000.12,0000.08,19.0,25.6,07.0,04.7,0679.4,31.0
2021-08-23T22:20:00Z,00000200,00000000,0001.18,0000.72,0000.26,-000.42,0000.36,0000.05,-000.06,0000.01,0000.04,19.1,25.6,07.0,04.7,0679.4,31.0
2021-08-23T22:21:00Z,00000200,00000000,0001.00,0000.94,0000.43,-000.13,0000.05,0000.16,0000.02,0000.52,0000.35,19.0,25.6,06.9,04.7,0679.4,31.0
2021-08-23T22:22:00Z,00000200,00000000,0001.25,0000.68,0000.22,-000.04,0000.33,0000.19,-000.12,-000.11,-000.14,19.0,25.6,06.8,04.6,0679.4,31.0
2021-08-23T22:23:00Z,00000200,00000000,0001.16,0000.73,0000.51,0000.48,-000.03,0000.17,0000.21,0000.22,-000.12,19.0,25.5,06.7,04.5,0679.4,31.0
2021-08-23T22:24:00Z,00000200,00000000,0000.37,0000.60,0000.23,0000.05,0000.34,0000.22,0000.41,0000.02,0000.19,19.0,25.5,06.8,04.5,0679.4,31.0
2021-08-23T22:25:00Z,00000200,00000000,0000.86,0000.90,0000.32,-000.24,0000.19,0000.21,0000.02,0000.01,0000.02,19.0,25.5,06.7,04.5,0679.4,31.0
2021-08-23T22:26:00Z,00000200,00000000,0000.55,0000.79,0000.27,0000.17,0000.50,0000.61,-000.01,0000.35,0000.17,19.0,25.5,06.8,04.6,0679.4,31.0
2021-08-23T22:27:00Z,00000200,00000000,0000.66,0000.99,0000.20,0000.10,0000.14,0000.14,0000.23,-000.30,-000.00,19.0,25.5,06.7,04.5,0679.5,31.0
2021-08-23T22:28:00Z,00000200,00000000,0001.30,0000.76,0000.45,-000.08,0000.00,0000.26,-000.07,0000.33,0000.16,19.0,25.5,06.8,04.5,0679.5,31.0
2021-08-23T22:29:00Z,00000200,00000000,0001.14,0001.14,0000.50,0000.31,0000.28,0000.19,0000.18,0000.07,-000.01,19.0,25.5,06.8,04.5,0679.5,31.0
2021-08-23T22:30:00Z,00000200,00000000,0001.64,0000.90,0000.14,0000.29,0000.11,-000.04,0000.40,0000.20,0000.09,19.0,25.5,06.8,04.5,0679.5,31.0
2021-08-23T22:31:00Z,00000200,00000000,0000.43,0000.98,0000.56,0000.15,0000.15,0000.47,0000.46,0000.29,0000.48,19.0,25.5,06.8,04.5,0679.5,31.0
2021-08-23T22:32:00Z,00000200,00000000,0001.74,0001.31,0000.87,-000.33,0000.22,0000.36,-000.04,0000.14,-000.06,19.0,25.5,06.8,04.6,0679.5,31.0
2021-08-23T22:33:00Z,00000200,00000000,0001.58,0001.28,0000.54,-000.20,0000.17,0000.25,0000.36,0000.32,0000.34,19.0,25.5,06.7,04.5,0679.5,31.0
2021-08-23T22:34:00Z,00000200,00000000,0000.98,0001.04,0000.85,0000.40,-000.03,0000.09,-000.07,0000.33,0000.02,19.0,25.5,06.9,04.6,0679.5,31.0
2021-08-23T22:35:00Z,00000200,00000000,0000.85,0001.36,0000.23,0000.20,0000.39,0000.02,0000.22,-000.11,-000.01,19.0,25.5,06.7,04.5,0679.5,31.0
2021-08-23T22:36:00Z,00000200,00000000,0001.38,0000.97,0000.58,0000.17,0000.02,0000.35,0000.10,-000.20,0000.13,19.0,25.5,06.6,04.5,0679.5,31.0
2021-08-23T22:37:00Z,00000200,00000000,0000.79,0000.57,0000.26,-000.24,0000.25,0000.08,0000.12,0000.31,-000.03,19.0,25.5,06.6,04.4,0679.5,31.0
2021-08-23T22:38:00Z,00000200,00000000,0001.39,0001.20,0000.47,-000.18,0000.22,0000.38,0000.12,0000.07,0000.22,19.0,25.5,06.6,04.4,0679.5,31.0
2021-08-23T22:39:00Z,00000200,00000000,0001.20,0001.09,0000.31,-000.22,0000.18,0000.17,-000.09,0000.18,0000.10,19.0,25.5,06.5,04.4,0679.5,31.0
2021-08-23T22:40:00Z,00000200,00000000,0001.70,0000.58,0000.41,-000.07,0000.31,0000.11,0000.25,0000.09,-000.24,19.0,25.5,06.5,04.3,0679.5,31.0
2021-08-23T22:41:00Z,00000200,00000000,0000.03,0000.84,0000.61,-000.40,0000.39,0000.41,-000.02,-000.00,0000.36,19.0,25.4,06.4,04.3,0679.5,31.0
2021-08-23T22:42:00Z,00000200,00000000,0000.85,0000.90,0000.62,0000.28,0000.42,0000.28,0000.37,0000.02,0000.27,18.9,25.4,06.5,04.4,0679.5,31.0
2021-08-23T22:43:00Z,00000200,00000000,0000.81,0000.95,0000.24,-000.04,-000.00,0000.14,-000.40,-000.09,-000.28,18.9,25.4,06.4,04.3,0679.5,31.0
2021-08-23T22:44:00Z,00000200,00000000,0000.87,0000.85,0000.38,0000.22,0000.20,0000.32,0000.37,0000.57,0000.23,18.9,25.4,06.4,04.3,0679.5,31.0
2021-08-23T22:45:00Z,00000200,00000000,0000.61,0000.81,0000.49,0000.18,0000.24,0000.30,0000.20,-000.32,-000.15,18.9,25.4,06.3,04.2,0679.5,31.0
2021-08-23T22:46:00Z,00000200,00000000,0000.63,0000.60,0000.27,-000.06,0000.64,0000.41,-000.22,-000.01,0000.07,18.9,25.4,06.3,04.2,0679.5,31.0
2021-08-23T22:47:00Z,00000200,00000000,0000.43,0000.66,0000.21,-000.16,0000.11,-000.04,0000.04,0000.30,0000.01,18.9,25.4,06.2,04.2,0679.5,31.0
2021-08-23T22:48:00Z,00000200,00000000,0000.91,0000.54,0000.14,0000.52,0000.25,0000.25,0000.11,-000.29,0000.06,18.9,25.4,06.2,04.2,0679.5,31.0
2021-08-23T22:49:00Z,00000200,00000000,0000.88,0000.76,0000.17,0000.10,-000.10,0000.22,-000.00,0000.28,-000.03,18.9,25.4,06.3,04.2,0679.5,31.0
2021-08-23T22:50:00Z,00000200,00000000,0000.60,0000.66,0000.09,0000.15,0000.02,0000.61,0000.11,0000.10,-000.07,18.9,25.4,06.2,04.2,0679.5,31.0
2021-08-23T22:51:00Z,00000200,00000000,0001.36,0000.81,0000.19,-000.40,0000.34,0000.23,0000.09,0000.16,0000.22,18.9,25.4,06.2,04.2,0679.5,31.0
2021-08-23T22:52:00Z,00000200,00000000,0000.53,0000.32,0000.25,0000.27,-000.04,0000.06,0000.00,-000.40,-000.05,18.9,25.4,06.2,04.2,0679.5,31.0
2021-08-23T22:53:00Z,00000200,00000000,0001.12,0001.18,0000.49,-000.19,0000.01,0000.20,0000.46,0000.55,0000.21,18.9,25.4,06.1,04.1,0679.5,31.0
2021-08-23T22:54:00Z,00000200,00000000,0001.31,0001.33,0000.20,-000.08,0000.36,0000.35,-000.05,-000.03,0000.10,18.9,25.4,06.1,04.1,0679.5,31.0
2021-08-23T22:55:00Z,00000200,00000000,0001.90,0000.94,0000.27,0000.28,0000.55,0000.09,0000.12,0000.36,0000.21,18.9,25.4,06.0,04.1,0679.5,31.0
2021-08-23T22:56:00Z,00000200,00000000,0000.69,0001.00,0000.77,0000.16,0000.53,0000.40,0000.52,0000.54,0000.31,18.9,25.4,06.1,04.1,0679.5,31.0
2021-08-23T22:57:00Z,00000200,40000000,,,,,,,0000.78,0000.49,0000.38,18.9,25.4,05.8,03.9,0679.5,31.0
2021-08-23T22:58:00Z,00000200,60000000,,,,,,,-000.60,-000.82,-000.43,18.6,25.5,06.3,04.1,0678.5,31.0
2021-08-23T22:59:00Z,00000200,20000000,,,,,,,-000.35,-000.02,-000.03,18.6,25.6,06.1,04.0,0678.5,31.0
